Погода в Комарове

Россия / Пермский край     57°18′23″N   55°39′25″E
темп.,
°C
ветер,
м/с
пор.,
м/с
влажн.,
%
обл.,
%
осадки,
мм/ч
давл.,
гПа
погр.,
м
26 сентября, вс
вс2623:00+9вюв3863100 0.1 1014213
02:00+8вюв2587100 0.2 1013145
05:00+8в4982100 0.4 1012307
08:00+8вюв51275100 0.0 1011443
11:00+9вюв61465100 0.0 1011624
14:00+11вюв71352100 0.0 10111002
17:00+11вюв81359100 0.0 1012982
20:00+7вюв81486100 0.5 1014897
27 сентября, пн
пн2723:00+6в71489100 1.5 1015988
02:00+4в81496100 0.6 1015797
05:00+2в81696100 0.9 1017665
08:00+2в81784100 0.8 1017827
11:00+4в91774100 0.8 1018925
14:00+6в81560100 0.0 10201030
17:00+7в8145384 0.0 10211248
20:00+5всв814585 0.0 1023971
28 сентября, вт
вт2823:00+3всв614655 0.0 1024848
02:00+2всв613745 0.0 1025599
05:000всв613825 0.0 1026575
08:000всв5128657 0.0 1027725
11:00+3всв6960100 0.0 10281246
14:00+6всв575079 0.0 10271486
17:00+6св5654100 0.0 10271275
20:00+2ссв2670100 0.0 1028102
29 сентября, ср
ср2923:00+1св2678100 0.0 1029136
02:000св228030 0.0 102921
05:00−1с22855 0.0 102917
08:00−1ссв22915 0.0 103041
11:00+5св24575 0.0 1030792
14:00+8св234767 0.0 10301460
17:00+7ссв334765 0.0 10291436
20:00+2ссв22715 0.0 103010
30 сентября, чт
чт3023:00+1ссв11785 0.0 103110
02:00−1ссз118562 0.0 103110
05:00−1ссз11885 0.0 103110
08:00−1зсз11885 0.0 103110
11:00+5зсз33637 0.0 1030422
14:00+7зсз455498 0.0 10281340
17:00+7з565976 0.0 10271150
20:00+5з3107294 0.0 1025352